ATLAS 5 CENTAUR DEB, 43973

Orbit data source: Space-Track

ATLAS 5 CENTAUR DEB, 43973 is space debris in HEO originally from a launch on Wed, 17 Sep 2014 UTC launched from the Air Force Eastern Test Range (AFETR). Debris objects in space refer to the collection of defunct objects orbiting the Earth. Examples of debris include non-operational satellites, rocket bodies, and fragments generated from explosions, collisions, or faulty payload assembly.

Loading next visibility...
Identifier
43973, 2014-055AC
Orbit
HEO
Country
Flag of USUS
Related business
Flag of USUnited Launch Alliance/Lockheed Martin (US)
Manufacturer
Unknown
Mission
Spacecraft
Bus & Motor
Unknown
Mass
Unknown
Launch date (UTC)
2014-09-17 (11 years ago)
Launch vehicle
Unknown
Launch site
Air Force Eastern Test Range (AFETR)
Object type
Payload
Rocket body
Debris
Shape & HBR
Unknown shape, 1.1 m
Radar Cross Section
Small (<0.1 m²)

Expand to show TLE details & history
Last TLE update: 1 day ago

TLE from 1 day ago
0 ATLAS 5 CENTAUR DEB
1 43973U 14055AC  25314.76743315 -.00000123  00000-0  00000-0 0  9999
2 43973  20.7797 131.1200 5012279 194.0468 144.1704  1.92513325 50654
Epoch: 2025-11-10T18:25Z
TLE epoch observation values (Epoch: 2025-11-10T18:25:06.224Z)
Latitude
-0.00002°
Longitude
164.66292°
Altitude
33,381.054 km
Speed
2.334 km/s
True Right ascension
08h 44m 24s
True Declination
0° 00' 00"
Sunlit
Object was in daylight at epoch
Visualization orbit readout
Latitude
Unknown
Longitude
Unknown
Altitude
Unknown
Speed
Unknown
Apparent Right ascension
Unknown
Apparent Declination
Unknown
Sunlit
N/A
Visualization observer readout
Local Sidereal Time
02:19:12
Azimuth
Unknown
Elevation
Unknown
Doppler factor
Unknown
Orbital elements
Apogee altitude
34,602.026 km
Perigee altitude
7,237.225 km
Semi-major axis
27,297.763 km
Eccentricity
0.50123
Inclination
20.7797°
RAAN
131.12°
Arg. of periapsis
194.0468°
True anomaly
165.96941°
Mean anomaly
144.1704°
Eccentric anomaly
155.8979°
Mean motion
0.48123 °/min
Orbital period
748.08 mins
BSTAR
0
Loading maneuver chart data...
Computing Atmospheric mass density...

Documentation

Showing up to 5 results
|